Location: Grisols
(45.0093°N, 3.1167°E)
Time: 20:53:33
(UTC+00:00)

Nadezhda 3 Rocket - Pass Details

Date: 21 October 2019
Orbit: 957 x 999 km, 82.9° (Epoch: 16 November)

Event Time Altitude Azimuth Distance (km) Brightness Sun altitude
Rises 17:13:35 0° 188° (S) 3,672 7.3 -4.4°
Reaches altitude 10° 17:16:04 10° 189° (S) 2,734 6.6 -4.8°
Maximum altitude 17:22:22 84° 278° (W) 1,004 4.2 -5.9°
Drops below altitude 10° 17:28:46 10° 7° (N) 2,775 6.2 -7.0°
Sets 17:31:19 0° 8° (N) 3,731 6.9 -7.4°
